Back to catalog

STARLINK-11585

AliveCommunicationsVLEO
NORAD 63309·PAYLOAD·🇺🇸 United States

Launched Mar 18, 2025 from Cape Canaveral Space Force Station

Loading…

Next Passes (next 24 hours)

TLE

FreshSource: CelesTrak SupGP

Epoch: Sep 14, 2026, 21:26 UTC

1 63309C 25057C   26257.89354167  .00054787  00000+0  42561-3 0  2573
2 63309  43.0004 203.8902 0001647 262.8892 200.4755 15.70806938    14

Track STARLINK-11585 in real time with AllMySat

Download on the App Store